Satellite-Ground Cal/Val Site Overpasses Predictions

Prediction of Satellite NPP Overpassing Cal/Val Site: Antarctic Dome C

Ground Cal/Val Site Location: Latitude: -75.10, Longitude: 123.35; Satellite-Ground Site NADIR distance within 100 km.

Table of predicted overpasses for the next 14.0 days since TLE Epoch: 4/1/2023
Interval Starting Time Ending Time Minimum Distance Time Minimum Distance (km)
1 04/01/2023 07:33:45 04/01/2023 07:34:14 04/01/2023 07:33:59 5.63
2 04/04/2023 14:57:14 04/04/2023 14:57:43 04/04/2023 14:57:29 24.00
3 04/05/2023 14:38:33 04/05/2023 14:38:49 04/05/2023 14:38:41 83.00
4 04/06/2023 07:40:06 04/06/2023 07:40:33 04/06/2023 07:40:19 31.18
5 04/07/2023 07:21:22 04/07/2023 07:21:40 04/07/2023 07:21:31 79.01
6 04/09/2023 15:03:38 04/09/2023 15:04:01 04/09/2023 15:03:49 60.90
7 04/10/2023 14:44:47 04/10/2023 14:45:13 04/10/2023 14:45:00 48.20
8 04/11/2023 07:46:29 04/11/2023 07:46:50 04/11/2023 07:46:39 66.28
9 04/12/2023 07:27:38 04/12/2023 07:28:04 04/12/2023 07:27:51 41.76
